Weather History for Houlton, ME

Change the Weather History Date:

Saturday, December 21, 2013

  Actual Average Record
Temperature  
Mean Temperature 19 °F 17 °F  
Max Temperature 23 °F 27 °F 56 °F (1957)
Min Temperature 15 °F 8 °F -21 °F (2008)
Degree Days  
Heating Degree Days 46 48  
Month to date heating degree days 1017 916  
Since 1 July heating degree days 3018 3024  
Cooling Degree Days 0 0  
Month to date cooling degree days 0 0  
Year to date cooling degree days 198 191  
Moisture  
Dew Point 17 °F    
Average Humidity 88    
Maximum Humidity 96    
Minimum Humidity 80    
Precipitation  
Precipitation 0.10 in 0.10 in 0.72 in (1973)
Month to date precipitation 1.27 2.36  
Year to date precipitation 41.22 39.05  
Sea Level Pressure  
Sea Level Pressure 29.92 in    
Wind  
Wind Speed 4 mph (North)    
Max Wind Speed 15 mph    
Max Gust Speed 20 mph    
Visibility 6 miles    
Events Rain , Snow    
T = Trace of Precipitation, MM = Missing Value Source: NWS Daily Summary

Daily Weather History Graph

Daily Weather History Graph

Search for Another Location

Airport:

Trip Planner

Search our weather history database for the weather conditions in past years. The results will help you decide how hot, cold, wet, or windy it might be!

Date:

Astronomy

Dec. 21, 2013 Rise Set
Actual Time 7:10 AM EST 3:48 PM EST
Civil Twilight 6:35 AM EST 4:22 PM EST
Nautical Twilight 5:57 AM EST 5:01 PM EST
Astronomical Twilight 5:21 AM EST 5:37 PM EST
Moon 8:13 PM EST (12/21) 9:23 AM EST (12/21)
Length of Visible Light 9h 47m
Length of Day
8h 37m
Waning Gibbous, 84% of the Moon is Illuminated
Dec 21
Waning Gibbous
Dec 25
Last Quarter
Jan 1
New
Jan 7
First Quarter
Jan 15
Full

Hourly Weather History & Observations

Time (EST) Temp. Windchill Dew Point Humidity Pressure Visibility Wind Dir Wind Speed Gust Speed Precip Events Conditions
12:53 AM 15.1 °F 9.4 °F 10.9 °F 84% 30.01 in 10.0 mi ENE 3.5 mph - N/A   Overcast
1:30 AM 15.1 °F 7.7 °F 10.9 °F 84% 29.96 in 10.0 mi NNE 4.6 mph - N/A   Overcast
1:37 AM 15.1 °F 6.4 °F 10.9 °F 84% 29.95 in 10.0 mi NE 5.8 mph - N/A   Mostly Cloudy
1:53 AM 15.1 °F 6.4 °F 10.9 °F 84% 30.00 in 10.0 mi NNE 5.8 mph - N/A   Mostly Cloudy
2:27 AM 16.0 °F 10.4 °F 10.9 °F 81% 29.99 in 6.0 mi North 3.5 mph - 0.00 in Snow Light Snow
2:50 AM 15.8 °F 10.2 °F 12.2 °F 86% 29.98 in 2.5 mi North 3.5 mph - 0.00 in Snow Light Snow
2:53 AM 16.0 °F 10.4 °F 12.0 °F 84% 30.01 in 2.0 mi NNE 3.5 mph - 0.00 in Snow Light Snow
2:57 AM 16.0 °F 8.8 °F 12.0 °F 84% 29.98 in 1.2 mi North 4.6 mph - 0.00 in Snow Light Snow
3:00 AM 15.1 °F 7.7 °F 12.0 °F 88% 29.98 in 0.8 mi North 4.6 mph - 0.01 in Snow Light Snow
3:15 AM 15.1 °F 6.4 °F 12.0 °F 88% 29.96 in 1.2 mi North 5.8 mph - 0.01 in Snow Light Snow
3:26 AM 16.0 °F 8.8 °F 12.0 °F 84% 29.96 in 2.0 mi NNE 4.6 mph - 0.01 in Snow Light Snow
3:36 AM 16.0 °F 8.8 °F 12.0 °F 84% 29.96 in 2.5 mi North 4.6 mph - 0.01 in Snow Light Snow
3:45 AM 16.0 °F 8.8 °F 12.0 °F 84% 29.96 in 3.0 mi North 4.6 mph - 0.01 in Snow Light Snow
3:53 AM 16.0 °F 10.4 °F 12.9 °F 88% 29.99 in 5.0 mi NNE 3.5 mph - 0.01 in Snow Light Snow
4:29 AM 16.0 °F 8.8 °F 12.9 °F 88% 29.93 in 4.0 mi North 4.6 mph - 0.00 in   Overcast
4:53 AM 16.0 °F 10.4 °F 12.9 °F 88% 29.96 in 5.0 mi North 3.5 mph - 0.01 in Snow Light Snow
5:53 AM 17.1 °F - 12.9 °F 84% 29.95 in 10.0 mi Calm Calm - 0.00 in   Overcast
6:27 AM 17.1 °F - 14.0 °F 88% 29.91 in 4.0 mi Calm Calm - N/A   Overcast
6:53 AM 17.1 °F - 15.1 °F 92% 29.94 in 5.0 mi Calm Calm - N/A   Overcast
7:09 AM 17.1 °F - 15.1 °F 92% 29.92 in 5.0 mi Calm Calm - N/A   Overcast
7:53 AM 18.0 °F - 15.1 °F 88% 29.94 in 10.0 mi Calm Calm - N/A   Overcast
8:35 AM 18.0 °F - 16.0 °F 92% 29.91 in 1.8 mi Calm Calm - 0.00 in   Overcast
8:38 AM 18.0 °F - 16.0 °F 92% 29.92 in 0.8 mi Calm Calm - 0.00 in   Overcast
8:53 AM 18.0 °F - 16.0 °F 92% 29.94 in 2.0 mi Calm Calm - 0.00 in   Overcast
9:18 AM 19.0 °F - 16.0 °F 88% 29.90 in 3.0 mi Calm Calm - N/A   Overcast
9:53 AM 19.0 °F - 17.1 °F 92% 29.94 in 6.0 mi Calm Calm - N/A   Overcast
10:33 AM 19.0 °F 13.9 °F 18.0 °F 96% 29.87 in 4.0 mi SSE 3.5 mph - 0.00 in   Overcast
10:42 AM 19.9 °F - 18.0 °F 92% 29.86 in 1.8 mi Calm Calm - 0.00 in   Overcast
10:53 AM 19.9 °F - 17.1 °F 89% 29.90 in 2.0 mi Calm Calm - 0.00 in   Overcast
11:02 AM 19.9 °F - 17.1 °F 89% 29.86 in 5.0 mi Calm Calm - N/A   Overcast
11:13 AM 19.9 °F 14.9 °F 18.0 °F 92% 29.86 in 2.5 mi Variable 3.5 mph - 0.00 in   Overcast
11:24 AM 19.9 °F - 19.0 °F 96% 29.85 in 1.5 mi Calm Calm - 0.01 in   Overcast
11:32 AM 19.9 °F 13.4 °F 19.0 °F 96% 29.84 in 1.2 mi South 4.6 mph - 0.02 in   Overcast
11:46 AM 21.0 °F 13.4 °F 19.9 °F 96% 29.83 in 1.0 mi SSE 5.8 mph - 0.04 in Rain Light Freezing Rain
11:53 AM 21.9 °F 17.2 °F 19.9 °F 92% 29.85 in 1.5 mi SSE 3.5 mph - 0.05 in Rain Light Freezing Rain
12:04 PM 21.9 °F - 19.9 °F 92% 29.82 in 1.5 mi Calm Calm - 0.01 in Rain Light Freezing Rain
12:14 PM 21.9 °F 15.7 °F 19.9 °F 92% 29.83 in 1.5 mi SSW 4.6 mph - 0.01 in   Overcast
12:25 PM 21.9 °F - 19.9 °F 92% 29.81 in 2.5 mi Calm Calm - 0.01 in   Overcast
12:31 PM 23.0 °F 18.4 °F 21.0 °F 92% 29.81 in 3.0 mi South 3.5 mph - 0.01 in Rain Light Freezing Rain
12:53 PM 23.0 °F - 21.0 °F 92% 29.85 in 7.0 mi Calm Calm - 0.02 in   Overcast
1:27 PM 23.0 °F 17.0 °F 19.9 °F 88% 29.83 in 2.5 mi NNW 4.6 mph - 0.00 in Rain Light Freezing Rain
1:34 PM 21.9 °F 17.2 °F 21.0 °F 96% 29.82 in 3.0 mi North 3.5 mph - 0.00 in   Overcast
1:53 PM 21.9 °F 14.5 °F 19.9 °F 92% 29.86 in 4.0 mi NNW 5.8 mph - 0.00 in   Overcast
2:27 PM 21.9 °F 12.5 °F 19.9 °F 92% 29.84 in 4.0 mi North 8.1 mph - 0.00 in   Overcast
2:48 PM 21.2 °F 11.7 °F 19.4 °F 93% 29.87 in 8.0 mi North 8.1 mph - 0.01 in   Overcast
2:53 PM 21.0 °F 12.4 °F 19.0 °F 92% 29.90 in 8.0 mi North 6.9 mph - 0.01 in   Overcast
3:07 PM 21.0 °F - 19.9 °F 96% 29.86 in 8.0 mi Calm Calm - 0.00 in   Overcast
3:16 PM 21.9 °F - 19.0 °F 89% 29.86 in 7.0 mi Calm Calm - 0.00 in   Overcast
3:53 PM 21.9 °F - 19.9 °F 92% 29.89 in 9.0 mi Calm Calm - 0.00 in   Overcast
4:28 PM 21.9 °F 15.7 °F 19.9 °F 92% 29.88 in 10.0 mi NNW 4.6 mph - N/A   Overcast
4:40 PM 21.9 °F 15.7 °F 19.9 °F 92% 29.89 in 10.0 mi NW 4.6 mph - N/A   Overcast
4:53 PM 21.9 °F 15.7 °F 19.9 °F 92% 29.92 in 10.0 mi NNW 4.6 mph - N/A   Overcast
5:01 PM 21.9 °F 14.5 °F 19.9 °F 92% 29.89 in 10.0 mi NNW 5.8 mph - N/A   Overcast
5:12 PM 21.9 °F 13.4 °F 19.9 °F 92% 29.90 in 10.0 mi North 6.9 mph - N/A   Overcast
5:22 PM 21.9 °F 13.4 °F 19.9 °F 92% 29.91 in 10.0 mi North 6.9 mph - N/A   Overcast
5:46 PM 21.9 °F 12.5 °F 19.0 °F 89% 29.91 in 10.0 mi North 8.1 mph - N/A   Overcast
5:50 PM 21.2 °F 13.6 °F 19.4 °F 93% 29.92 in 10.0 mi North 5.8 mph - N/A   Overcast
5:53 PM 21.9 °F 12.5 °F 19.0 °F 89% 29.95 in 10.0 mi North 8.1 mph - N/A   Overcast
6:20 PM 21.9 °F 11.7 °F 18.0 °F 85% 29.93 in 9.0 mi North 9.2 mph - 0.00 in Rain Light Freezing Rain
6:53 PM 21.9 °F 12.5 °F 19.0 °F 89% 29.97 in 8.0 mi North 8.1 mph - 0.00 in Rain Light Freezing Rain
7:44 PM 21.0 °F 11.4 °F 18.0 °F 88% 29.96 in 9.0 mi North 8.1 mph - 0.00 in   Overcast
7:53 PM 21.0 °F 9.9 °F 17.1 °F 85% 30.00 in 9.0 mi North 10.4 mph - 0.00 in   Overcast
8:02 PM 21.0 °F 9.3 °F 17.1 °F 85% 29.97 in 9.0 mi North 11.5 mph - 0.00 in Rain Light Freezing Rain
8:26 PM 21.0 °F 11.4 °F 17.1 °F 85% 29.97 in 10.0 mi North 8.1 mph - 0.00 in   Overcast
8:53 PM 19.9 °F 8.6 °F 16.0 °F 85% 30.02 in 10.0 mi North 10.4 mph - 0.00 in   Overcast
9:53 PM 19.9 °F 9.3 °F 16.0 °F 85% 30.01 in 10.0 mi North 9.2 mph - N/A   Overcast
10:53 PM 19.9 °F 10.1 °F 15.1 °F 81% 30.05 in 10.0 mi North 8.1 mph - N/A   Overcast
11:53 PM 19.0 °F 6.8 °F 15.1 °F 85% 30.06 in 10.0 mi North 11.5 mph - N/A   Overcast